This is the latest recevied weather packets stored in our database for station/object M0JUI-1. If no packets are shown the sender has not sent any weather packets the latest 10 day(s).
| Time | Temp. | Humidity | Pressure | Rain* | Wind** | Luminosity | Snow |
|---|---|---|---|---|---|---|---|
| 1788112005 | 14.44° C | 8% | 1004.9 hPa | 1.52 mm | - | 27 W/m² | - |
| 1788111704 | 14.44° C | 7% | 1004.9 hPa | 1.52 mm | - | 26 W/m² | - |
| 1788111404 | 14.44° C | 7% | 1004.9 hPa | 1.52 mm | - | 18 W/m² | - |
| 1788111104 | 14.44° C | 6% | 1004.8 hPa | 1.52 mm | - | 15 W/m² | - |
| 1788110817 | 14.44° C | 5% | 1005.1 hPa | 1.52 mm | - | 12 W/m² | - |
| 1788110505 | 15° C | 4% | 1005.1 hPa | 1.27 mm | - | 6 W/m² | - |
| 1788110204 | 15° C | 2% | 1005.1 hPa | 1.02 mm | - | 4 W/m² | - |
| 1788109905 | 15.56° C | 1% | 1005.1 hPa | 0.76 mm | - | 5 W/m² | - |
| 1788109605 | 16.67° C | 1% | 1005 hPa | 0.51 mm | - | 4 W/m² | - |
| 1788109304 | 17.22° C | 1% | 1004.9 hPa | 0.51 mm | - | 0 W/m² | - |
| 1788109006 | 17.78° C | 1% | 1005 hPa | 0 mm | - | 2 W/m² | - |
| 1788108692 | 17.78° C | 1% | 1005.1 hPa | 0 mm | - | 3 W/m² | - |
| 1788108392 | 17.78° C | 1% | 1005 hPa | 0 mm | - | 7 W/m² | - |
| 1788108093 | 17.78° C | 1% | 1004.9 hPa | 0 mm | - | 12 W/m² | - |
| 1788107780 | 17.78° C | 1% | 1005.1 hPa | 0 mm | - | 21 W/m² | - |
| 1788107481 | 17.78° C | 1% | 1004.9 hPa | 0 mm | - | 31 W/m² | - |
| 1788107181 | 18.33° C | 1% | 1005 hPa | 0 mm | - | 23 W/m² | - |
| 1788106868 | 18.33° C | 1% | 1005.1 hPa | 0 mm | - | 29 W/m² | - |
| 1788106568 | 18.33° C | 1% | 1004.8 hPa | 0 mm | - | 39 W/m² | - |
| 1788106268 | 18.33° C | 1% | 1004.8 hPa | 0 mm | - | 59 W/m² | - |
| 1788105956 | 18.33° C | 1% | 1004.6 hPa | 0 mm | - | 70 W/m² | - |
| 1788105656 | 18.33° C | 1% | 1004.7 hPa | 0 mm | - | 62 W/m² | - |
| 1788105357 | 18.33° C | 1% | 1004.5 hPa | 0 mm | - | 48 W/m² | - |
| 1788105056 | 18.89° C | 1% | 1004.7 hPa | 0 mm | - | 50 W/m² | - |
| 1788104757 | 18.89° C | 1% | 1004.6 hPa | 0 mm | - | 106 W/m² | - |
* Rain latest hour (hover to see other rain measurements)
** Current wind speed in m/s (hover to see current wind gust speed)